Location: Alsip
(41.6689°N, 87.7387°W)
Time: 14:16:32
(UTC+00:00)

Cosmos 1943 - Pass Details

Date: 14 July 2020
Orbit: 835 x 848 km, 71.0° (Epoch: 04 August)

Event Time Altitude Azimuth Distance (km) Brightness Sun altitude
Exits shadow 05:25:12 48° 246° (WSW) 1,088 3.6 -26.3°
Maximum altitude 05:26:29 61° 297° (WNW) 952 3.5 -26.3°
Drops below altitude 10° 05:32:06 10° 18° (NNE) 2,467 6.5 -26.5°
Sets 05:34:35 0° 22° (NNE) 3,404 7.3 -26.5°
